PBO Station Position Time Series. Reference Frame : NAM14
Format Version,1.1.0
4-character ID,USNO
Station name,U.S._Naval_Obser
Begin Date, 1997-05-01
End Date, 2015-03-19
Release Date, 2021-02-19
Reference position, 38.9189629335 North Latitude, -77.0662259454 East Longitude, 48.87189 meters elevation,
Date, North (mm), East (mm), Vertical (mm), North Std. Deviation (mm), East Std. Deviation (mm),              Vertical Std. Deviation (mm), Quality,
1997-05-01,0.00, 0.00, 0.00, 3.23, 2.53, 11.61, repro,
1997-05-02,2.07, -2.55, 11.61, 2.36, 1.91, 8.86, repro,
1997-05-03,2.55, -1.89, -1.58, 2.97, 2.46, 11.00, repro,
1997-05-04,1.06, -2.81, 8.53, 2.19, 1.80, 8.26, repro,
1997-05-05,2.40, -2.85, -1.22, 2.31, 1.91, 8.77, repro,
1997-05-06,1.96, -1.77, 3.50, 2.30, 1.86, 8.56, repro,
1997-05-07,1.55, -0.62, 1.59, 2.23, 1.79, 8.35, repro,
1997-05-08,3.20, -1.07, 2.74, 2.24, 1.84, 8.47, repro,
1997-05-09,4.65, -2.20, 2.17, 2.20, 1.77, 8.23, repro,
1997-05-10,3.00, -1.73, -0.40, 2.29, 1.81, 8.40, repro,
1997-05-11,2.75, -2.81, 0.91, 2.22, 1.79, 8.34, repro,
1997-05-12,1.42, -2.58, 6.27, 2.29, 1.85, 8.52, repro,
1997-05-13,2.25, -1.14, 11.78, 2.24, 1.80, 8.32, repro,
1997-05-14,2.28, -2.66, 15.10, 2.20, 1.77, 8.26, repro,
1997-05-15,0.18, -1.15, 11.09, 2.22, 1.80, 8.40, repro,
1997-05-16,2.17, -0.68, 7.43, 2.27, 1.85, 8.52, repro,
1997-05-17,3.60, -2.69, 5.32, 2.34, 1.81, 8.71, repro,
1997-05-18,1.30, -2.12, 12.20, 2.23, 1.77, 8.34, repro,
1997-05-19,2.30, 0.69, 14.12, 2.41, 1.97, 9.09, repro,
1997-05-20,1.08, -1.16, 6.80, 2.28, 1.88, 8.56, repro,
1997-05-21,3.18, -1.84, 9.08, 2.33, 1.90, 8.80, repro,
1997-05-22,3.18, -3.32, 4.87, 2.29, 1.80, 8.58, repro,
1997-05-23,1.97, -3.51, 2.98, 2.33, 1.85, 8.68, repro,
1997-05-24,2.82, -1.67, 9.90, 2.28, 1.81, 8.54, repro,
1997-05-25,1.06, -1.42, 12.73, 2.31, 1.85, 8.70, repro,
1997-05-26,2.63, -3.23, 10.66, 2.47, 1.95, 9.35, repro,
1997-05-27,4.01, -1.33, -2.36, 2.46, 1.90, 9.19, repro,
1997-05-28,1.32, -2.31, 0.94, 2.38, 1.88, 8.77, repro,
1997-05-29,2.52, -2.26, 3.63, 2.34, 1.86, 8.59, repro,
1997-05-30,2.90, -1.93, 4.69, 2.53, 1.92, 9.03, repro,
1997-05-31,3.58, -2.06, 6.95, 2.39, 1.85, 8.72, repro,
1997-06-01,3.01, -2.02, 19.77, 2.40, 1.82, 8.58, repro,
1997-06-02,2.92, -2.77, 14.11, 2.46, 1.82, 8.75, repro,
1997-06-03,2.37, -1.41, 1.70, 2.45, 1.92, 8.89, repro,
1997-06-04,2.52, -2.44, 1.25, 2.38, 1.80, 8.60, repro,
1997-06-05,0.66, -2.78, 5.15, 2.25, 1.79, 8.31, repro,
1997-06-06,1.73, -1.45, 15.85, 2.42, 1.82, 8.68, repro,
1997-06-07,1.46, -2.53, 5.22, 2.40, 1.81, 8.92, repro,
1997-06-08,2.26, -2.44, 6.13, 2.38, 1.87, 8.73, repro,
1997-06-09,1.82, -3.28, 4.52, 2.51, 1.89, 8.99, repro,
1997-06-10,2.27, -2.14, 10.02, 2.64, 1.94, 9.40, repro,
1997-06-11,1.72, -1.48, 5.29, 2.53, 1.95, 9.26, repro,
1997-06-12,1.17, -2.26, 18.48, 2.43, 1.85, 8.98, repro,
1997-06-13,2.45, -1.83, 22.17, 2.42, 1.82, 8.68, repro,
1997-06-14,1.42, -2.34, 6.06, 2.44, 1.88, 9.16, repro,
1997-06-15,1.45, -1.55, 17.01, 2.47, 1.88, 8.98, repro,
1997-06-16,-0.26, -0.62, 20.56, 2.51, 1.93, 8.99, repro,
1997-06-17,0.78, -0.02, 12.61, 2.46, 1.85, 8.82, repro,
1997-06-18,2.69, -0.92, 8.56, 2.93, 2.10, 10.12, repro,
1997-06-19,1.42, -1.64, 6.75, 2.48, 1.98, 9.31, repro,
1997-06-20,0.59, -2.40, 22.75, 2.54, 2.05, 9.56, repro,
1997-06-21,1.10, -0.66, 12.52, 2.45, 1.82, 8.73, repro,
1997-06-22,2.94, -1.08, -0.60, 2.52, 1.96, 9.26, repro,
1997-06-23,2.52, -1.52, 15.52, 2.30, 1.85, 8.74, repro,
1997-06-24,-0.15, 0.05, 13.43, 2.40, 1.83, 8.70, repro,
1997-06-25,-0.12, 2.09, 20.14, 2.36, 1.83, 8.65, repro,
1997-06-26,-1.11, 0.03, 27.23, 2.34, 1.89, 8.66, repro,
1997-06-27,0.99, 0.12, 14.42, 2.36, 1.79, 8.49, repro,
1997-06-28,-0.38, 0.22, 21.58, 2.43, 1.93, 9.02, repro,
1997-06-29,2.04, -0.11, 9.62, 2.25, 1.80, 8.43, repro,
1997-06-30,1.00, -1.28, 25.53, 2.32, 1.87, 8.61, repro,
1997-07-01,2.05, -2.07, 19.04, 2.33, 1.88, 8.78, repro,
1997-07-02,3.11, -2.08, 16.81, 2.35, 1.85, 8.81, repro,
1997-07-03,0.01, -1.42, 13.95, 2.35, 1.92, 8.90, repro,
1997-07-04,1.44, 0.18, 23.81, 2.26, 1.82, 8.38, repro,
1997-07-05,1.09, -1.16, 22.79, 2.37, 1.97, 9.33, repro,
1997-07-06,1.67, -0.79, 18.41, 2.26, 1.81, 8.34, repro,
1997-07-07,2.06, -0.71, 16.59, 2.33, 1.88, 8.66, repro,
1997-07-08,1.47, -1.77, 25.95, 2.35, 1.93, 9.14, repro,
1997-07-09,-0.93, -0.64, 24.38, 2.32, 1.86, 8.65, repro,
1997-07-10,0.34, -1.56, 12.17, 2.41, 1.95, 9.14, repro,
1997-07-11,1.33, -0.01, 12.96, 2.37, 1.82, 8.47, repro,
1997-07-12,0.21, -1.96, 21.95, 2.31, 1.82, 8.61, repro,
1997-07-13,0.36, -2.34, 23.09, 2.29, 1.80, 8.47, repro,
1997-07-14,0.00, -0.41, 20.15, 2.31, 1.88, 8.62, repro,
1997-07-15,0.90, 1.84, 23.59, 2.51, 1.98, 9.26, repro,
1997-07-16,0.51, 0.64, 20.99, 2.34, 1.88, 8.84, repro,
1997-07-17,0.97, -1.36, 25.99, 2.28, 1.81, 8.42, repro,
1997-07-18,2.45, 1.36, 19.28, 2.32, 1.85, 8.80, repro,
1997-07-19,-2.51, 1.36, 14.84, 2.44, 1.96, 9.19, repro,
1997-07-20,0.24, -0.68, 18.18, 2.36, 1.88, 8.68, repro,
1997-07-21,0.88, 4.69, 24.06, 2.30, 1.82, 8.38, repro,
1997-07-22,0.80, -1.54, 35.12, 2.30, 1.82, 8.49, repro,
1997-07-23,1.59, -1.97, 16.07, 2.37, 1.87, 8.81, repro,
1997-07-24,2.22, -0.96, 22.23, 2.43, 1.86, 8.77, repro,
1997-07-25,0.27, -0.67, 17.17, 2.44, 1.91, 8.99, repro,
1997-07-26,-0.24, -3.29, 14.56, 2.32, 1.87, 8.62, repro,
1997-07-27,2.55, 1.74, 23.26, 2.40, 1.97, 8.97, repro,
1997-07-28,0.37, 0.12, 31.31, 2.33, 1.84, 8.61, repro,
1997-07-29,0.73, -1.79, 17.93, 2.32, 1.85, 8.62, repro,
1997-07-30,0.63, -1.19, 21.60, 2.45, 1.90, 8.76, repro,
1997-07-31,-1.72, -1.91, 15.76, 2.58, 1.97, 9.24, repro,
1997-08-01,-1.83, -2.14, 21.84, 2.46, 1.93, 9.02, repro,
1997-08-02,0.05, -2.61, 7.21, 2.44, 1.93, 8.88, repro,
1997-08-03,-0.18, -1.49, 20.33, 2.33, 1.81, 8.40, repro,
1997-08-04,0.74, -0.20, 23.34, 2.45, 1.94, 9.13, repro,
1997-08-05,-0.77, 0.82, 19.65, 2.38, 1.84, 8.68, repro,
1997-08-06,0.29, -0.22, 15.26, 2.37, 1.86, 8.62, repro,
1997-08-07,-1.86, -1.84, 19.47, 2.33, 1.82, 8.52, repro,
1997-08-08,1.67, -1.67, 22.77, 2.58, 2.02, 9.34, repro,
1997-08-09,-0.34, -1.63, 26.99, 2.47, 1.97, 8.96, repro,
1997-08-10,-0.26, 0.13, 23.90, 2.47, 1.97, 9.16, repro,
1997-08-11,0.17, -0.55, 21.47, 2.45, 1.92, 8.85, repro,
1997-08-12,0.29, 0.01, 15.11, 2.60, 1.96, 9.33, repro,
1997-08-13,0.46, -1.50, 19.15, 2.38, 1.86, 8.61, repro,
1997-08-14,0.76, 0.79, 25.54, 2.52, 1.89, 9.06, repro,
1997-08-15,-1.03, -1.91, 35.57, 2.39, 1.89, 8.64, repro,
1997-08-16,-0.89, -1.67, 29.92, 2.34, 1.84, 8.53, repro,
1997-08-17,-1.31, -0.70, 24.52, 2.63, 2.05, 9.62, repro,
1997-08-18,2.84, -1.88, 26.04, 2.60, 1.96, 9.43, repro,
1997-08-19,0.41, -1.59, 11.36, 2.34, 1.77, 8.32, repro,
1997-08-20,1.52, -0.19, 15.93, 2.52, 1.99, 8.99, repro,
1997-08-21,1.38, -0.62, 20.89, 2.38, 1.80, 8.42, repro,
1997-08-22,1.11, -1.59, 19.87, 2.34, 1.79, 8.39, repro,
1997-08-23,0.64, -0.13, 19.26, 2.31, 1.79, 8.35, repro,
1997-08-24,1.74, -0.17, 16.83, 2.42, 1.86, 8.63, repro,
1997-08-25,1.82, 1.55, 12.71, 2.66, 2.08, 9.50, repro,
1997-08-26,0.65, -2.40, 20.50, 2.51, 1.88, 8.81, repro,
1997-08-27,0.76, -0.84, 19.45, 2.44, 1.91, 8.59, repro,
1997-08-28,1.42, -1.29, 32.59, 2.28, 1.78, 8.41, repro,
1997-08-29,-1.32, -1.03, 25.57, 2.49, 1.87, 8.67, repro,
1997-08-30,1.97, 0.31, 10.53, 2.36, 1.81, 8.32, repro,
1997-08-31,0.10, 0.53, 13.67, 2.47, 1.89, 8.55, repro,
1997-09-01,4.33, 0.06, 11.35, 2.30, 1.87, 8.41, repro,
1997-09-02,2.85, -0.40, 17.90, 2.62, 2.05, 9.47, repro,
1997-09-03,4.32, 2.70, 1.81, 2.31, 1.86, 8.55, repro,
1997-09-04,1.41, 0.18, 8.46, 2.34, 1.85, 8.44, repro,
1997-09-05,1.09, -1.13, 17.24, 2.35, 1.77, 8.27, repro,
1997-09-06,3.93, -0.85, 14.07, 2.28, 1.79, 8.20, repro,
1997-09-07,2.07, -0.09, 14.57, 2.27, 1.76, 8.20, repro,
1997-09-08,1.61, -0.37, 9.62, 2.31, 1.80, 8.29, repro,
1997-09-09,1.55, -0.98, 31.80, 2.35, 1.82, 8.49, repro,
1997-09-10,0.81, 2.04, 19.03, 2.37, 1.89, 8.90, repro,
1997-09-12,1.17, -0.07, 14.69, 2.34, 1.89, 8.52, repro,
1997-09-13,1.00, 0.31, 17.07, 2.32, 1.90, 8.49, repro,
1997-09-14,1.85, -0.39, 13.79, 2.24, 1.75, 7.98, repro,
1997-09-15,0.32, -1.39, 8.52, 2.26, 1.76, 8.05, repro,
1997-09-16,1.45, -0.31, 13.03, 2.25, 1.78, 8.20, repro,
1997-09-17,1.17, 0.89, 18.76, 2.25, 1.80, 8.38, repro,
1997-09-18,1.57, -1.07, 26.06, 2.30, 1.82, 8.36, repro,
1997-09-19,-0.37, -0.22, 26.07, 2.30, 1.78, 8.16, repro,
1997-09-20,1.42, 0.68, 17.69, 2.39, 1.89, 8.56, repro,
1997-09-21,2.76, -1.72, 10.35, 2.34, 1.78, 8.24, repro,
1997-09-22,1.74, -0.22, 9.30, 2.41, 1.91, 8.60, repro,
1997-09-23,2.21, -1.28, 19.66, 2.33, 1.96, 8.95, repro,
1997-09-24,0.58, 0.20, 19.22, 2.26, 1.86, 8.50, repro,
1997-09-25,1.61, -1.27, 22.94, 2.42, 1.90, 8.85, repro,
1997-09-26,0.78, -0.34, 17.35, 2.72, 2.39, 10.47, repro,
1997-09-27,2.12, 0.62, 19.01, 2.39, 1.81, 8.49, repro,
1997-09-28,3.19, -0.67, 11.65, 2.29, 1.85, 8.43, repro,
1997-09-29,0.01, 0.89, 40.91, 2.60, 2.01, 9.34, repro,
1997-09-30,-0.24, -0.71, 27.96, 2.24, 1.77, 8.02, repro,
1997-10-01,0.93, -1.02, 11.18, 2.34, 1.83, 8.33, repro,
1997-10-02,1.30, -2.74, 11.95, 2.27, 1.78, 8.10, repro,
1997-10-03,2.23, -0.02, 15.78, 2.51, 1.98, 8.97, repro,
1997-10-04,2.55, -0.67, 16.72, 2.43, 1.98, 9.09, repro,
1997-10-05,-0.48, -0.43, 19.92, 2.38, 1.91, 8.62, repro,
1997-10-06,1.06, 0.94, 12.94, 2.47, 1.94, 8.95, repro,
1997-10-07,2.00, -0.16, 22.31, 2.37, 1.84, 8.92, repro,
1997-10-08,0.63, -0.69, 19.14, 2.35, 1.90, 8.83, repro,
1997-10-09,1.85, -0.02, 18.18, 2.34, 1.84, 8.67, repro,
1997-10-10,2.63, 1.29, 17.82, 2.39, 1.90, 9.08, repro,
1997-10-11,2.43, -0.50, 11.19, 2.47, 2.04, 9.29, repro,
1997-10-12,1.68, -0.45, 16.08, 2.50, 1.90, 8.87, repro,
1997-10-13,1.00, -1.86, 13.78, 2.33, 1.86, 8.52, repro,
1997-10-14,2.80, -2.83, 8.06, 2.43, 1.99, 9.22, repro,
1997-10-15,2.54, -1.43, 7.90, 2.41, 1.95, 9.16, repro,
1997-10-16,4.06, -0.79, 8.17, 2.40, 2.13, 9.34, repro,
1997-10-17,1.51, -2.08, 15.38, 2.40, 2.02, 8.94, repro,
1997-10-18,3.41, -0.75, 11.56, 2.35, 1.98, 8.82, repro,
1997-10-19,4.10, -2.32, 12.32, 2.37, 2.00, 9.11, repro,
1997-10-20,3.86, -0.55, 13.12, 2.42, 2.11, 9.51, repro,
1997-10-21,2.43, -1.85, 7.08, 2.47, 2.11, 9.76, repro,
1997-10-22,5.11, -4.36, 12.88, 2.40, 1.99, 9.20, repro,
1997-10-23,2.30, -2.37, 22.16, 2.34, 1.97, 8.90, repro,
1997-10-24,3.00, -3.18, 25.16, 2.37, 2.01, 9.18, repro,
1997-10-25,5.23, -2.61, 17.00, 2.54, 2.07, 9.53, repro,
1997-10-26,3.62, -1.67, 14.03, 2.43, 1.92, 8.94, repro,
1997-10-27,3.13, -1.71, 21.58, 2.54, 2.18, 9.74, repro,
1997-10-28,2.65, -0.84, 16.84, 2.40, 1.90, 8.81, repro,
1997-10-29,3.40, -2.36, 19.07, 2.43, 1.97, 9.29, repro,
1997-10-30,3.83, -2.73, 19.01, 2.46, 2.06, 9.38, repro,
1997-10-31,4.22, -1.24, 12.64, 2.43, 2.10, 9.36, repro,
1997-11-01,2.29, -0.69, 8.79, 2.31, 1.93, 8.76, repro,
1997-11-03,2.90, -1.15, 22.16, 2.42, 2.08, 9.57, repro,
1997-11-04,2.13, -2.95, 19.57, 2.40, 2.05, 9.33, repro,
1997-11-05,2.07, -2.13, 1.08, 2.35, 1.99, 8.95, repro,
1997-11-06,2.47, -1.07, 16.86, 2.64, 2.36, 10.87, repro,
1997-11-07,4.81, -2.89, 7.39, 2.38, 2.03, 9.16, repro,
1997-11-08,2.14, -2.63, 11.44, 2.29, 1.87, 8.57, repro,
1997-11-09,2.59, -1.60, 6.52, 2.31, 1.93, 8.85, repro,
1997-11-10,3.12, -3.65, 18.14, 2.30, 1.89, 8.65, repro,
1997-11-11,2.76, -4.41, 12.32, 2.52, 2.08, 9.56, repro,
1997-11-12,1.89, -1.95, 27.28, 2.33, 1.96, 9.14, repro,
1997-11-13,2.73, -4.78, 12.84, 2.38, 1.89, 8.78, repro,
1997-11-14,2.61, -0.79, 24.87, 2.31, 1.98, 8.85, repro,
1997-11-15,1.73, -2.26, 12.54, 2.29, 1.91, 8.70, repro,
1997-11-16,3.44, -0.19, 17.15, 2.35, 1.99, 9.00, repro,
1997-11-17,2.93, -6.23, 15.05, 2.31, 1.91, 8.80, repro,
1997-11-18,2.72, -4.12, 12.56, 2.39, 1.93, 9.15, repro,
1997-11-19,2.55, -3.05, 19.77, 2.40, 2.06, 9.38, repro,
1997-11-20,3.72, -2.49, 9.74, 2.34, 1.97, 8.96, repro,
1997-11-21,2.29, -4.89, 6.25, 2.47, 2.19, 9.99, repro,
1997-11-22,3.17, -3.21, 20.67, 2.64, 2.35, 10.60, repro,
1997-11-23,6.87, -1.05, 21.92, 2.58, 2.23, 10.29, repro,
1997-11-24,1.17, -2.82, 17.90, 2.44, 2.12, 9.59, repro,
1997-11-25,3.56, -4.08, 19.56, 2.48, 2.05, 9.53, repro,
1997-11-26,2.45, -4.40, 24.87, 2.51, 2.10, 9.83, repro,
1997-11-27,2.49, -4.16, 27.12, 2.38, 1.95, 9.15, repro,
1997-11-28,3.32, -1.89, 22.90, 2.31, 1.86, 8.95, repro,
1997-11-29,1.55, -4.57, 16.97, 2.33, 1.88, 8.89, repro,
1997-11-30,2.91, -2.73, 24.12, 2.34, 1.82, 8.61, repro,
1997-12-01,3.82, -2.58, 21.30, 2.28, 1.86, 8.95, repro,
1997-12-02,4.29, -3.78, 18.64, 2.40, 1.94, 9.36, repro,
1997-12-03,4.12, -3.78, 17.15, 2.42, 1.93, 9.27, repro,
1997-12-04,4.44, -2.95, 22.38, 2.31, 1.84, 8.76, repro,
1997-12-05,3.45, -2.37, 13.13, 2.37, 1.90, 9.05, repro,
1997-12-06,3.35, -4.33, 21.52, 2.41, 1.95, 9.14, repro,
1997-12-07,3.21, -4.60, 16.43, 2.38, 1.86, 8.83, repro,
1997-12-08,3.66, -4.08, 16.31, 2.36, 1.89, 9.03, repro,
1997-12-09,0.85, -2.02, 12.04, 2.23, 1.78, 8.15, repro,
1997-12-10,0.63, -1.59, 25.53, 2.40, 1.91, 9.12, repro,
1997-12-11,4.22, -1.74, 18.71, 2.28, 1.80, 8.49, repro,
1997-12-12,2.93, -3.02, 18.94, 2.29, 1.79, 8.59, repro,
1997-12-13,3.22, -3.36, 23.28, 2.31, 1.83, 8.77, repro,
1997-12-14,2.88, -2.55, 21.54, 2.25, 1.80, 8.71, repro,
1997-12-15,3.76, -3.17, 24.54, 2.59, 2.04, 9.89, repro,
1997-12-16,2.69, -2.54, 27.65, 2.22, 1.80, 8.65, repro,
1997-12-17,2.44, -2.36, 23.42, 2.19, 1.81, 8.53, repro,
1997-12-18,1.95, -3.17, 9.70, 2.25, 1.86, 8.52, repro,
1997-12-19,3.37, -3.19, 14.73, 2.20, 1.77, 8.37, repro,
1997-12-20,1.93, -2.95, 17.75, 2.32, 1.97, 9.04, repro,
1997-12-21,1.98, -3.72, 12.23, 2.23, 1.93, 8.94, repro,
1997-12-22,2.16, -1.94, 13.94, 2.24, 1.92, 8.86, repro,
1997-12-23,3.67, -4.53, 14.16, 2.22, 1.79, 8.42, repro,
1997-12-24,1.80, -3.02, 20.46, 2.14, 1.80, 8.40, repro,
1997-12-25,3.30, -4.95, 11.74, 2.33, 2.15, 9.46, repro,
1997-12-26,0.76, -3.42, 6.08, 2.25, 1.95, 8.98, repro,
1997-12-27,3.05, -6.32, 12.90, 2.29, 1.96, 9.15, repro,
1997-12-28,1.77, -4.25, 16.08, 2.24, 1.87, 8.66, repro,
1997-12-29,1.78, -3.30, 22.55, 2.43, 2.04, 9.89, repro,
1997-12-30,0.49, -2.39, 19.89, 2.33, 1.94, 8.86, repro,
1997-12-31,1.51, -4.47, 15.92, 2.23, 1.89, 8.52, repro,
1998-01-01,1.79, -5.13, 14.68, 2.29, 2.01, 9.15, repro,
1998-01-02,1.58, -2.78, 9.51, 2.28, 1.86, 8.66, repro,
1998-01-03,2.05, -3.43, 13.59, 2.34, 2.07, 9.12, repro,
1998-01-04,1.63, -3.37, -0.00, 2.19, 1.82, 8.37, repro,
1998-01-05,0.98, -3.01, 12.08, 2.35, 1.92, 8.83, repro,
1998-01-06,1.18, -3.69, 10.43, 2.44, 2.00, 9.43, repro,
1998-01-07,3.17, -3.94, 13.24, 2.33, 1.92, 8.84, repro,
1998-01-08,0.74, -5.37, 14.35, 2.39, 2.00, 9.13, repro,
1998-01-09,1.17, -3.53, 24.47, 2.26, 1.92, 8.67, repro,
1998-01-10,2.12, -3.99, 13.11, 2.36, 1.92, 8.86, repro,
1998-01-11,2.94, -4.46, 11.82, 2.44, 2.06, 9.47, repro,
1998-01-12,3.15, -5.95, 15.21, 2.29, 1.96, 8.83, repro,
1998-01-13,2.65, -4.23, 6.97, 2.41, 1.97, 8.96, repro,
1998-01-14,1.54, -4.73, 7.25, 2.24, 1.90, 8.64, repro,
1998-01-15,2.59, -3.12, 11.94, 2.29, 1.99, 8.97, repro,
1998-01-16,2.72, -2.56, 19.16, 2.42, 1.90, 9.09, repro,
1998-01-17,2.23, -2.81, 10.32, 2.24, 1.86, 8.47, repro,
1998-01-18,2.26, -3.01, 8.68, 2.28, 1.96, 8.86, repro,
1998-01-19,2.88, -3.75, 7.50, 2.18, 1.80, 8.10, repro,
1998-01-20,2.54, -4.32, 4.77, 2.18, 1.79, 8.18, repro,
1998-01-21,2.06, -3.70, 5.89, 2.20, 1.82, 8.15, repro,
1998-01-22,1.21, -3.65, 8.33, 2.26, 1.76, 8.10, repro,
1998-01-23,2.48, -2.69, 3.22, 2.42, 2.01, 9.07, repro,
1998-01-24,2.31, -2.85, 6.32, 2.21, 1.86, 8.26, repro,
1998-01-25,1.93, -4.12, 0.97, 2.27, 1.84, 8.39, repro,
1998-01-26,1.97, -3.62, 6.39, 2.16, 1.75, 7.93, repro,
1998-01-27,2.44, -4.73, 10.87, 2.26, 1.83, 8.31, repro,
1998-01-28,3.88, -4.08, 2.49, 2.31, 1.94, 8.42, repro,
1998-01-29,2.32, -3.76, 0.59, 2.26, 1.91, 8.50, repro,
1998-01-30,1.36, -5.41, 5.52, 2.17, 1.81, 8.00, repro,
1998-01-31,2.76, -3.30, -1.66, 2.26, 1.89, 8.32, repro,
1998-02-01,1.88, -4.35, 3.59, 2.26, 1.90, 8.56, repro,
1998-02-02,2.02, -3.68, 3.29, 2.22, 1.85, 8.29, repro,
1998-02-03,1.85, -3.79, -1.08, 2.21, 1.88, 8.38, repro,
1998-02-04,3.31, -3.00, 9.46, 2.23, 1.91, 8.44, repro,
1998-02-05,2.75, -2.87, 7.77, 2.28, 2.00, 8.86, repro,
1998-02-06,3.02, -3.78, 3.78, 2.31, 1.94, 8.82, repro,
1998-02-07,2.68, -3.69, 13.29, 2.28, 1.91, 8.83, repro,
1998-02-08,2.34, -2.78, 6.08, 2.35, 1.97, 8.89, repro,
1998-02-09,2.28, -2.63, -1.33, 2.34, 1.93, 8.77, repro,
1998-02-10,2.59, -3.15, 0.30, 2.27, 1.89, 8.69, repro,
1998-02-11,4.77, -3.16, 4.39, 2.17, 1.79, 8.33, repro,
1998-02-12,0.18, -0.56, 12.41, 2.19, 1.83, 8.40, repro,
1998-02-13,0.80, -5.09, 13.54, 2.17, 1.77, 8.14, repro,
1998-02-14,1.47, -3.88, 3.49, 2.40, 2.00, 9.00, repro,
1998-02-15,1.91, -4.13, -1.13, 2.30, 1.91, 8.77, repro,
1998-02-16,0.65, -3.51, -1.99, 2.18, 1.79, 8.21, repro,
1998-02-17,3.10, -2.11, 2.13, 2.21, 1.81, 8.42, repro,
1998-02-18,3.43, -2.26, 8.82, 2.47, 2.19, 9.96, repro,
1998-02-19,2.71, -2.36, 6.63, 2.39, 1.96, 8.86, repro,
1998-02-20,2.22, -3.98, 6.76, 2.51, 2.04, 9.60, repro,
1998-02-21,1.13, -4.10, 9.08, 2.29, 1.92, 8.65, repro,
1998-02-22,2.41, -3.34, 1.47, 2.26, 1.89, 8.52, repro,
1998-02-23,1.29, -2.45, 8.47, 2.14, 1.76, 8.05, repro,
1998-02-24,1.46, -3.34, 8.64, 2.14, 1.76, 8.01, repro,
1998-02-25,1.38, -3.74, 8.14, 2.17, 1.77, 8.17, repro,
1998-02-26,3.08, -3.17, 4.81, 2.32, 1.80, 8.66, repro,
1998-02-27,2.02, -3.11, 6.77, 2.27, 1.78, 8.44, repro,
1998-02-28,2.28, -2.69, 3.20, 2.28, 1.86, 8.70, repro,
1998-03-01,3.15, -1.51, 6.43, 2.19, 1.85, 8.34, repro,
1998-03-02,2.76, -2.78, 6.58, 2.14, 1.75, 7.99, repro,
1998-03-03,2.18, -3.82, 6.91, 2.32, 1.86, 8.50, repro,
1998-03-04,1.70, -3.35, 10.74, 2.20, 1.85, 8.66, repro,
1998-03-05,0.98, -4.64, 2.22, 2.20, 1.84, 8.25, repro,
1998-03-06,2.93, -3.27, 7.38, 2.19, 1.85, 8.38, repro,
1998-03-07,2.53, -2.53, -1.21, 2.23, 1.77, 8.19, repro,
1998-03-08,2.79, -2.71, 6.34, 2.30, 1.87, 8.49, repro,
1998-03-09,0.71, -3.14, 5.14, 2.17, 1.76, 8.10, repro,
1998-03-10,2.47, -2.89, 5.25, 2.34, 1.82, 8.52, repro,
1998-03-11,3.01, -5.77, 1.19, 2.21, 1.80, 8.19, repro,
1998-03-12,2.20, -6.36, -3.90, 2.20, 1.78, 8.36, repro,
1998-03-13,2.92, -5.53, -1.79, 2.12, 1.75, 8.07, repro,
1998-03-14,3.00, -4.61, 1.80, 2.16, 1.78, 8.06, repro,
1998-03-16,3.19, -4.03, -1.34, 2.16, 1.76, 8.11, repro,
1998-03-17,3.24, -4.35, -2.15, 2.29, 1.87, 8.61, repro,
1998-03-18,2.79, -2.80, 1.02, 2.23, 1.80, 8.31, repro,
1998-03-19,3.45, -2.61, 8.21, 2.17, 1.76, 8.15, repro,
1998-03-20,1.61, -2.42, 3.28, 2.22, 1.82, 8.21, repro,
1998-03-21,1.80, -2.03, 11.76, 2.14, 1.74, 8.00, repro,
1998-03-22,2.09, -3.25, 0.82, 2.28, 1.80, 8.37, repro,
1998-03-23,1.61, -3.72, 7.43, 2.25, 1.89, 8.43, repro,
1998-03-24,2.66, -3.91, -2.05, 2.23, 1.79, 8.42, repro,
1998-03-25,3.34, -5.66, 0.86, 2.29, 1.84, 8.55, repro,
1998-03-26,0.98, -3.52, 4.02, 2.30, 1.94, 8.67, repro,
1998-03-27,2.50, -1.82, 7.45, 2.24, 1.79, 8.35, repro,
1998-03-28,0.88, -3.31, 16.22, 2.21, 1.82, 8.30, repro,
1998-03-29,2.29, -1.62, 16.12, 2.24, 1.80, 8.29, repro,
1998-03-30,2.55, -2.96, 14.34, 2.27, 1.84, 8.35, repro,
1998-03-31,2.04, -2.79, 14.74, 2.28, 1.84, 8.36, repro,
1998-04-01,2.45, -1.76, 15.00, 2.30, 1.84, 8.50, repro,
1998-04-02,2.91, -0.56, 16.27, 2.64, 2.14, 9.79, repro,
1998-04-03,2.79, -3.27, 8.87, 2.28, 1.83, 8.49, repro,
1998-04-04,4.74, -2.32, 9.52, 2.63, 2.03, 9.71, repro,
1998-04-05,5.36, -2.99, 3.90, 2.33, 1.84, 8.48, repro,
1998-04-06,3.30, -4.61, 10.86, 2.35, 1.86, 8.70, repro,
1998-04-07,4.22, -3.35, 2.40, 2.43, 1.94, 8.94, repro,
1998-04-08,4.43, -2.28, 15.50, 2.47, 1.90, 8.80, repro,
1998-04-09,2.48, -3.83, 22.73, 2.36, 1.83, 8.54, repro,
1998-04-10,5.53, -3.79, 13.99, 2.39, 1.84, 8.73, repro,
1998-04-11,4.10, -5.56, 1.82, 2.48, 1.92, 8.98, repro,
1998-04-12,2.93, -3.48, 3.58, 2.33, 1.87, 8.45, repro,
1998-04-13,3.24, -3.24, 2.94, 2.30, 1.82, 8.30, repro,
1998-04-14,4.18, -2.57, 2.83, 2.22, 1.80, 8.34, repro,
1998-04-15,3.99, -2.46, 12.02, 2.38, 1.94, 8.79, repro,
1998-04-16,3.30, -2.58, 6.20, 2.32, 1.87, 8.40, repro,
1998-04-17,4.22, 0.76, 6.98, 2.57, 2.23, 9.92, repro,
1998-04-18,3.33, -1.48, -0.51, 2.24, 1.80, 8.31, repro,
1998-04-19,5.34, -1.77, -4.85, 2.23, 1.77, 8.21, repro,
1998-04-20,3.68, -2.36, 3.11, 2.39, 1.89, 8.89, repro,
1998-04-21,2.62, -3.28, 6.94, 2.25, 1.79, 8.15, repro,
1998-04-22,3.09, -2.85, 0.68, 2.27, 1.80, 8.27, repro,
1998-04-23,2.40, -2.08, 5.66, 2.17, 1.75, 8.23, repro,
1998-04-24,1.64, -1.93, 4.51, 2.17, 1.78, 8.31, repro,
1998-04-25,2.64, -0.67, 9.28, 2.13, 1.74, 7.99, repro,
1998-04-26,1.58, -2.73, 5.98, 2.17, 1.76, 8.26, repro,
1998-04-27,3.29, -1.35, -0.04, 2.13, 1.73, 7.90, repro,
1998-04-28,4.08, -2.05, -4.59, 2.19, 1.77, 8.11, repro,
1998-04-29,4.90, -2.11, -2.42, 2.26, 1.90, 8.58, repro,
1998-04-30,3.01, -1.83, -1.41, 2.18, 1.74, 8.15, repro,
1998-05-01,3.03, -1.77, -0.45, 2.22, 1.76, 8.23, repro,
1998-05-02,3.33, 1.24, 0.00, 2.32, 1.91, 8.94, repro,
1998-05-03,4.52, -0.95, 12.60, 2.22, 1.82, 8.44, repro,
1998-05-04,3.82, -0.74, 9.81, 2.17, 1.76, 8.20, repro,
1998-05-05,1.22, -1.81, 7.10, 2.19, 1.78, 8.27, repro,
1998-05-06,1.84, 0.10, 5.32, 2.21, 1.77, 8.15, repro,
1998-05-07,3.32, -1.82, 7.32, 2.16, 1.78, 8.17, repro,
1998-05-08,3.62, 0.22, -0.35, 2.28, 1.85, 8.65, repro,
1998-05-09,4.58, -0.63, 3.37, 2.17, 1.73, 8.05, repro,
1998-05-10,3.86, -0.73, 0.22, 2.15, 1.74, 8.08, repro,
1998-05-11,2.49, -0.63, 5.34, 2.18, 1.78, 8.28, repro,
1998-05-12,4.68, -2.31, 3.24, 2.24, 1.77, 8.46, repro,
1998-05-13,3.40, -0.48, -3.82, 2.22, 1.83, 8.38, repro,
1998-05-14,2.48, -1.33, -6.19, 2.22, 1.77, 8.23, repro,
1998-05-15,2.47, -1.81, 8.20, 2.21, 1.76, 8.38, repro,
1998-05-16,2.55, -1.42, 9.13, 2.26, 1.78, 8.61, repro,
1998-05-17,3.07, -1.62, 5.23, 2.27, 1.82, 8.64, repro,
1998-05-18,2.37, -1.29, -0.47, 2.27, 1.76, 8.49, repro,
1998-05-19,1.14, -1.39, 7.05, 2.28, 1.82, 8.69, repro,
1998-05-20,2.04, 0.23, 5.76, 2.23, 1.80, 8.41, repro,
1998-05-21,2.08, -1.89, 19.93, 2.35, 1.91, 9.07, repro,
1998-05-22,1.15, -1.40, 5.73, 2.18, 1.74, 8.12, repro,
1998-05-23,2.56, -3.38, 15.54, 2.23, 1.80, 8.33, repro,
1998-05-24,1.70, -3.20, 12.41, 2.21, 1.79, 8.36, repro,
1998-05-25,1.97, -2.00, 12.83, 2.34, 1.83, 8.90, repro,
1998-05-26,3.88, -1.78, 6.08, 2.34, 1.89, 9.04, repro,
1998-05-27,1.45, -1.12, 11.64, 2.31, 1.87, 8.87, repro,
1998-05-28,3.57, -3.03, 4.45, 2.24, 1.78, 8.64, repro,
1998-05-29,2.38, -2.95, 10.70, 2.29, 1.80, 8.77, repro,
1998-05-30,1.59, -2.15, 8.75, 2.45, 1.92, 9.36, repro,
1998-05-31,3.24, -1.42, 9.99, 2.40, 1.90, 9.30, repro,
1998-06-01,-0.04, -2.15, 31.24, 2.28, 1.85, 8.96, repro,
1998-06-02,1.35, -1.78, 17.77, 2.25, 1.79, 8.60, repro,
1998-06-03,-0.48, -1.41, 19.87, 2.57, 2.01, 9.97, repro,
1998-06-04,3.54, -2.36, 13.16, 2.25, 1.79, 8.68, repro,
1998-06-05,1.21, -3.90, 18.63, 2.39, 1.87, 9.08, repro,
1998-06-06,2.33, -4.26, 12.26, 2.25, 1.78, 8.56, repro,
1998-06-07,2.62, -2.70, 8.64, 2.26, 1.77, 8.55, repro,
1998-06-08,2.31, -3.11, 4.14, 2.26, 1.78, 8.70, repro,
1998-06-09,2.07, -2.95, 6.99, 2.17, 1.73, 8.03, repro,
1998-06-10,3.38, -2.38, 6.14, 2.22, 1.81, 8.34, repro,
1998-06-11,3.40, 0.10, 3.49, 2.28, 1.90, 8.81, repro,
1998-06-12,3.91, 0.52, 2.07, 2.21, 1.78, 8.37, repro,
1998-06-13,1.88, 3.91, 21.57, 2.26, 1.82, 8.54, repro,
1998-06-14,2.51, -1.44, 20.37, 2.19, 1.74, 8.12, repro,
1998-06-15,2.23, -0.73, 18.17, 2.29, 1.76, 8.39, repro,
1998-06-16,1.57, 0.40, 17.55, 2.36, 1.99, 9.22, repro,
1998-06-17,4.54, -0.53, 18.72, 2.22, 1.78, 8.34, repro,
1998-06-18,0.19, 0.47, 20.97, 2.22, 1.76, 8.34, repro,
1998-06-19,1.89, 0.64, 15.62, 2.21, 1.76, 8.27, repro,
1998-06-20,0.18, -3.51, 21.19, 2.20, 1.77, 8.29, repro,
1998-06-21,2.91, -2.83, 14.01, 2.25, 1.79, 8.48, repro,
1998-06-22,4.43, 0.72, 4.41, 2.22, 1.82, 8.52, repro,
1998-06-23,2.87, -1.60, 17.16, 2.38, 1.87, 8.90, repro,
1998-06-24,3.28, 1.68, 18.27, 2.30, 1.87, 8.88, repro,
1998-06-25,0.10, 1.43, 10.92, 2.33, 1.91, 8.91, repro,
1998-06-26,2.41, 1.44, 16.51, 2.33, 1.84, 8.69, repro,
1998-06-27,2.64, 3.01, 14.33, 2.32, 1.86, 8.83, repro,
1998-06-28,1.44, 0.81, 9.54, 2.26, 1.88, 8.60, repro,
1998-06-29,-1.05, 0.79, 20.09, 2.36, 1.88, 8.94, repro,
1998-06-30,0.92, -2.14, 7.62, 2.26, 1.83, 8.67, repro,